Location: Oracle State Park
(32.6095°N, 110.7330°W)
Time: 14:01:00
(UTC-07:00)

ISS - Visible Passes

Search period start: 17 October 2019 00:00
Search period end: 27 October 2019 00:00
Orbit: 411 x 421 km, 51.6° (Epoch: 17 October)

Date Brightness Start Highest point End Pass type
(mag) Time Alt. Az. Time Alt. Az. Time Alt. Az.
22 Oct -1.3 05:30:25 10° S 05:33:09 23° SE 05:35:54 10° ENE visible
23 Oct -0.7 04:43:19 10° SSE 04:44:44 12° SE 04:46:10 10° E visible
24 Oct -3.8 05:29:53 15° SW 05:32:33 89° SSE 05:35:55 10° NE visible
25 Oct -2.5 04:44:21 40° ESE 04:44:21 40° ESE 04:47:14 10° ENE visible
26 Oct -2.7 05:31:30 25° WNW 05:32:11 27° NW 05:35:07 10° NNE visible
